Вернуться в каталог

TITAN 3C TRANSTAGE DEB

LostMEO
NORAD 43448·DEBRIS·🇺🇸 United States

Запущен Feb 9, 1969 с Cape Canaveral Space Force Station

Loading…

Ближайшие Пролёты (ближайшие 24 часа)

TLE

УстаревшееSource: Space-Track

Эпоха: Aug 11, 2026, 19:05 UTC

1 43448U 69013H   26223.79576489  .00000002  00000-0  00000-0 0  9994
2 43448   1.2999 102.2905 0284724  45.0060 317.1371  0.98710960 30091

Отслеживайте TITAN 3C TRANSTAGE DEB в реальном времени с AllMySat

Download on the App Store